VK2BNC-13 Weather Reports


time (UTC)temp
C
wind
direction
speed
KPH
gust
KPH
rain 1hr
cm
rain 24hr
cm
rain mn
cm
humidity
%
barometer
mb
20260505064813 22 181 1.6 6.4 0.00 0.03 0.00 45
20260505063311 22 202 1.6 4.8 0.00 0.03 0.00 43
20260505061808 23 189 1.6 4.8 0.00 0.03 0.00 42
20260505060308 23 224 0.0 6.4 0.00 0.03 0.00 41
20260505054807 23 225 1.6 6.4 0.00 0.03 0.00 42
20260505053304 23 205 1.6 4.8 0.00 0.03 0.00 42
20260505051800 23 36 3.2 8.0 0.00 0.03 0.00 43
20260505050259 23 284 1.6 4.8 0.00 0.03 0.00 43
20260505040259 22 74 1.6 9.7 0.00 0.03 0.00 45
20260505034757 22 165 1.6 12.9 0.00 0.03 0.00 44
20260505033254 22 164 6.4 12.9 0.00 0.03 0.00 45
20260505031752 22 190 6.4 12.9 0.00 0.03 0.00 45
20260505030252 22 356 3.2 14.5 0.00 0.03 0.00 45
20260505024752 22 221 4.8 14.5 0.00 0.03 0.00 45
20260505023252 22 287 3.2 9.7 0.00 0.03 0.00 46
20260505021752 22 287 3.2 9.7 0.00 0.03 0.00 47
20260505020252 21 205 3.2 11.3 0.00 0.08 0.00 50
20260505014752 21 329 4.8 11.3 0.00 0.15 0.00 50
20260505013252 21 280 4.8 14.5 0.00 0.18 0.00 53
20260505011752 20 264 4.8 14.5 0.00 0.23 0.00 54
20260505010252 20 276 4.8 16.1 0.00 0.25 0.00 56
20260505004752 20 265 4.8 16.1 0.00 0.33 0.00 57
20260505003250 19 232 6.4 16.1 0.00 0.51 0.00 57
20260505001750 19 257 6.4 16.1 0.00 0.51 0.00 58
20260505000250 18 268 6.4 14.5 0.00 0.53 0.00 57
20260504234750 18 285 3.2 11.3 0.00 0.58 0.00 62
20260504233248 18 256 4.8 11.3 0.00 0.61 0.00 65
20260504231746 17 311 4.8 11.3 0.00 0.61 0.00 65
20260504230245 17 319 1.6 8.0 0.00 0.64 0.00 67
20260504224745 16 313 1.6 6.4 0.00 0.71 0.00 74
20260504223246 16 286 1.6 4.8 0.00 0.71 0.00 78
20260504221746 15 320 0.0 4.8 0.00 0.71 0.00 81
20260504220246 14 48 3.2 4.8 0.00 0.71 0.00 87
20260504214744 13 27 3.2 4.8 0.00 0.71 0.00 89
20260504213242 12 65 1.6 4.8 0.00 0.71 0.00 88
20260504211742 12 40 0.0 3.2 0.00 0.71 0.00 90
20260504210238 11 71 1.6 3.2 0.00 0.71 0.00 92
20260504204737 10 320 0.0 1.6 0.00 0.71 0.00 92
20260504203238 11 192 0.0 1.6 0.00 0.71 0.00 91
20260504201735 12 192 0.0 1.6 0.00 0.71 0.00 88
20260504200235 12 192 0.0 4.8 0.00 0.74 0.00 85
20260504194735 13 258 1.6 6.4 0.00 0.74 0.00 81
20260504193236 13 267 3.2 6.4 0.00 0.74 0.00 85
20260504191735 13 277 1.6 8.0 0.00 0.74 0.00 85
20260504190236 13 277 3.2 8.0 0.00 0.74 0.00 85
20260504184735 12 284 1.6 4.8 0.00 0.74 0.00 95
20260504183232 12 288 0.0 1.6 0.00 0.74 0.00 95
20260504181729 13 278 0.0 1.6 0.00 0.74 0.00 95
20260504180228 13 293 0.0 0.0 0.00 0.74 0.00 96
20260504174727 13 14 0.0 1.6 0.00 0.74 0.00 96
20260504173225 14 40 0.0 1.6 0.00 0.74 0.00 96
20260504171724 15 329 0.0 4.8 0.00 0.74 0.00 96
20260504170222 15 318 0.0 1.6 0.00 0.74 0.00 96
20260504160219 16 337 0.0 0.0 0.00 0.74 0.00 95
20260504150215 16 288 0.0 1.6 0.00 0.74 0.00 94
20260504140209 17 212 0.0 3.2 0.03 0.74 0.00 92
20260504130202 17 235 1.6 8.0 0.00 0.71 0.71 89
20260504120156 17 190 0.0 3.2 0.00 0.71 0.71 86
20260504110151 18 72 3.2 8.0 0.00 0.71 0.71 82
20260504100150 19 50 3.2 8.0 0.00 0.71 0.71 83
20260504081648 18 60 1.6 3.2 0.00 0.71 0.71 88
20260504080148 18 37 1.6 4.8 0.00 0.71 0.71 88
20260504070142 19 22 3.2 8.0 0.00 0.71 0.71 86